Home > Weather > Melbourne > Past weeks

Flag for Australia Weather for the Past 2 Weeks in Melbourne, Victoria, Australia

Now
63 °F

Passing clouds.


Feels Like: 63 °F
Forecast: 63 / 73 °F
Wind: 14 mph from North

Location: Melbourne Airport

Current Time: Apr 29, 2016 at 8:06:52 PM

Latest Report: Apr 29, 2016 at 7:00 PM


Visibility: N/A

Pressure: 29.92 "Hg

Humidity: 83%

Dew Point: 57 °F

Location of MelbourneLocation

Historic Weather in Melbourne — Graph

°F

Melbourne Temperature Yesterday

Maximum temperature yesterday: 75 °F (at 3:00 PM)
Minimum temperature yesterday: 61 °F (at 11:00 PM)
Average temperature yesterday: 67 °F

High & Low Weather Summary for the Past Weeks

 TemperatureHumidityPressure
High82 °F (Apr 15, 2:30 PM)100% (Apr 16, 7:30 PM)30.48 "Hg (Apr 16, 7:30 PM)
Low46 °F (Apr 18, 6:30 AM)16% (Apr 15, 2:30 PM)29.89 "Hg (Apr 29, 5:00 PM)
Average63 °F61%30.18 "Hg
* Reported Apr 14 6:00 PM — Apr 29 6:00 PM, Melbourne, Weather by CustomWeather, © 2016

Note: Actual official high and low records may vary slightly from our data, if they occured in-between our weather recording intervals... More about our weather records

Advertising

Melbourne Weather History for the Previous 24 Hours

Scroll right to see more
 ConditionsComfort  
Time TempWeatherWind HumidityBarometerVisibility
6:00 PM
Fri, Apr 29
63 °FPassing clouds.13 mph83%29.92 "HgN/A
5:30 PM64 °FPassing clouds.22 mph73%29.92 "HgN/A
5:00 PM63 °FPassing clouds.20 mph83%29.89 "HgN/A
4:00 PM64 °FPartly sunny.14 mph83%29.92 "HgN/A
3:00 PM63 °FLight rain. Partly sunny.9 mph83%29.92 "HgN/A
2:00 PM61 °FLight rain. Overcast.13 mph94%29.95 "HgN/A
1:00 PM61 °FLight rain. Overcast.7 mph94%29.95 "HgN/A
12:30 PM63 °FLight rain. Overcast.14 mph88%29.95 "Hg5 mi
12:00 PM63 °FLight rain. Clear.9 mph83%29.98 "HgN/A
11:30 AM64 °FLight rain. Clear.15 mph78%29.98 "HgN/A
11:00 AM66 °FLight rain. Clear.20 mph68%29.98 "HgN/A
10:00 AM64 °FSunny.20 mph73%29.98 "Hg10 mi
9:00 AM63 °FSunny.14 mph77%29.98 "Hg10 mi
8:00 AM66 °FLight rain. Clear.15 mph56%29.98 "HgN/A
7:00 AM68 °FSunny.18 mph53%29.95 "Hg10 mi
6:30 AM68 °FScattered showers. Clear.21 mph49%29.95 "HgN/A
6:00 AM68 °FSunny.18 mph46%29.95 "Hg10 mi
5:30 AM68 °FClear.18 mph46%29.95 "Hg10 mi
5:00 AM68 °FClear.16 mph46%29.95 "Hg10 mi
4:30 AM66 °FClear.17 mph52%29.95 "Hg10 mi
4:00 AM66 °FClear.17 mph49%29.98 "Hg10 mi
3:30 AM68 °FClear.20 mph46%29.95 "Hg10 mi
3:00 AM66 °FClear.20 mph49%29.95 "Hg10 mi
2:30 AM68 °FClear.18 mph46%29.98 "Hg10 mi
2:00 AM66 °FClear.16 mph49%29.98 "Hg10 mi
1:30 AM64 °FClear.12 mph56%29.98 "Hg10 mi
1:00 AM63 °FClear.10 mph59%29.98 "Hg10 mi
12:30 AM61 °FClear.12 mph72%30.01 "Hg10 mi
12:00 AM63 °FClear.9 mph73%30.01 "Hg10 mi
11:30 PM
Thu, Apr 28
61 °FClear.7 mph83%30.01 "Hg10 mi
11:00 PM61 °FClear.6 mph83%30.04 "Hg10 mi
10:00 PM63 °FClear.3 mph77%30.07 "Hg10 mi
9:00 PM64 °FClear.No wind73%30.04 "Hg10 mi
8:30 PM64 °FClear.3 mph73%30.04 "Hg10 mi
8:00 PM63 °FClear.5 mph83%30.04 "Hg10 mi
Weather by CustomWeather, © 2016

See weather overviewHow to use our weather pages